Location: Unspecified
(0.0000°N, 0.0000°E)
Time: 19:10:27
(UTC+00:00)

THORAD DELTA 1 DEB - Pass Details

Date: 20 February 2026
Orbit: 1451 x 1738 km, 101.5° (Epoch: 9 March)

Event Time Altitude Azimuth Distance (km) Brightness Sun altitude
Rises 20:33:20 0° 167° (SSE) 4,702 ? -34.2°
Reaches altitude 10° 20:36:13 10° 168° (SSE) 3,685 ? -34.9°
Maximum altitude 20:44:47 80° 254° (WSW) 1,495 ? -37.0°
Drops below altitude 10° 20:53:03 10° 341° (NNW) 3,562 ? -39.0°
Sets 20:55:48 0° 342° (NNW) 4,537 ? -39.7°
